Theta_e
302 301 300 300 299 299 298 295 297 297 297 297 297 297 296 297 296 296 296 296 296 296 296 295 296 296 296 296 296 296 297 302 310 311 309 309 310 308 308 311 312 313 313 311 311 312 311 309 309 310 309 309 308 310 310 309 310 313 321 324 320 320 320 320 323 320 318 323 320 315 316 319 322 320 321 323 323 323 322 323 323 324 324 324 326 326 327 326
302 300 299 298 297 297 296 296 298 298 299 299 299 298 297 296 296 296 296 296 296 296 296 295 295 295 296 296 296 297 296 302 313 313 309 308 310 311 309 310 312 313 313 312 312 313 313 312 311 312 311 310 309 310 311 310 310 315 323 321 315 319 320 317 320 317 316 319 317 315 316 316 319 318 319 324 323 322 323 324 323 324 324 324 325 326 327 327
300 298 296 296 296 296 296 296 298 299 300 300 300 299 297 296 296 296 296 296 296 296 295 295 295 295 296 296 296 298 296 302 312 310 306 305 306 311 311 310 310 312 313 312 313 313 313 313 314 315 314 313 310 310 310 312 313 314 318 317 315 319 320 316 317 317 317 317 315 316 316 316 317 317 318 321 321 322 324 324 323 324 325 324 325 325 326 327
299 296 295 295 296 296 296 297 298 299 300 300 299 299 298 298 298 297 295 295 296 295 295 295 295 295 296 296 296 298 296 304 309 303 302 301 300 304 307 309 309 311 313 312 313 313 313 314 315 315 314 313 311 310 309 311 314 314 313 313 314 317 318 316 316 318 318 317 316 315 317 317 317 317 318 318 320 324 323 322 322 324 325 325 325 325 326 327
297 295 295 295 296 296 296 297 298 299 298 299 298 298 297 297 297 297 295 295 295 295 295 295 295 295 296 296 297 297 296 302 304 299 299 299 298 299 300 304 306 309 311 312 312 312 313 314 315 315 314 313 312 311 309 309 311 312 312 312 313 314 315 316 316 318 318 317 316 315 317 318 318 317 317 318 319 322 320 319 321 323 324 325 325 326 327 327
297 295 295 294 295 295 295 297 298 297 297 297 297 297 296 296 296 296 295 295 295 294 294 294 296 297 296 297 297 297 298 299 299 299 299 298 298 299 298 300 303 306 309 310 312 311 312 314 315 315 313 312 311 310 310 312 311 310 310 309 309 311 313 314 313 315 315 314 313 314 316 317 317 317 317 317 318 319 318 319 320 320 322 324 325 326 328 329
298 296 294 294 294 294 295 297 297 296 296 297 297 296 296 296 296 296 295 295 294 294 294 295 298 298 296 298 297 298 299 299 299 300 300 299 299 299 299 300 301 304 307 309 310 310 311 312 314 313 312 313 312 311 313 314 313 312 312 310 309 311 311 312 312 312 312 312 311 313 314 314 316 318 317 316 317 318 318 319 319 319 321 322 324 325 327 329
299 296 294 294 294 294 295 296 296 296 297 297 297 297 297 297 296 296 295 294 294 294 295 296 297 298 297 298 298 299 300 299 300 300 300 300 299 299 299 300 302 303 306 308 309 309 310 310 311 312 312 314 313 313 314 314 313 313 314 311 311 313 313 313 313 313 313 312 312 313 313 313 315 316 316 316 317 318 318 318 319 319 321 322 324 324 326 328
299 296 295 294 294 295 295 296 296 296 297 297 297 297 297 297 296 296 295 295 295 296 296 296 297 298 298 299 298 300 300 299 301 300 300 300 300 299 298 300 302 304 305 307 307 308 308 308 309 310 310 312 313 314 314 314 314 312 311 311 311 312 312 313 313 313 313 312 312 313 314 314 314 315 316 316 317 318 318 318 318 318 319 322 325 325 325 326
299 297 295 294 294 295 295 295 296 296 297 297 297 297 297 297 296 295 295 296 296 296 296 297 298 298 299 299 299 300 299 299 300 300 300 300 299 297 297 299 302 304 305 306 307 307 307 307 307 308 310 312 313 314 313 314 315 312 312 312 311 311 312 312 313 313 313 312 312 313 314 313 313 315 316 317 318 318 318 319 318 319 319 320 324 326 327 327
299 296 295 294 294 295 295 295 296 296 297 297 297 298 298 297 296 295 296 297 297 297 297 298 298 299 299 299 299 300 299 300 300 300 300 299 298 297 296 298 300 302 304 305 306 306 306 306 306 308 311 313 313 314 314 314 314 313 313 312 310 311 311 312 312 312 312 313 312 312 314 313 313 315 315 315 317 317 318 318 318 318 319 319 322 326 328 328
297 296 295 294 294 295 295 295 296 297 297 297 297 298 298 297 296 296 297 297 297 298 298 299 299 299 299 300 300 300 299 300 300 300 300 300 299 297 296 297 298 299 301 303 304 305 306 306 306 307 311 312 313 314 314 314 313 313 312 312 312 312 312 312 312 313 312 312 312 312 314 312 314 316 315 315 316 316 317 317 317 317 318 318 319 322 326 328
296 295 294 293 294 295 295 295 296 297 297 297 297 298 298 297 297 297 297 297 298 299 299 299 299 300 300 300 299 299 299 300 300 301 300 300 299 298 297 297 298 299 301 302 303 304 305 305 305 306 308 310 313 313 313 313 312 312 311 311 313 313 316 313 309 311 311 311 312 313 312 311 313 315 313 315 315 316 317 317 317 317 318 318 317 319 321 325
296 295 294 293 294 295 295 296 296 297 297 298 298 298 298 297 297 298 297 298 299 299 300 300 300 300 300 300 299 299 300 300 300 300 300 300 300 299 298 297 298 299 302 302 302 303 304 305 306 306 307 309 312 312 312 312 312 312 311 311 313 313 319 317 308 310 312 311 312 314 312 311 313 314 313 314 314 315 316 316 317 317 317 318 318 318 318 321
295 294 294 293 294 295 295 296 297 297 297 297 298 298 298 298 298 298 298 299 299 299 299 300 300 301 300 299 299 299 299 300 300 300 300 300 300 300 300 299 299 299 301 302 302 302 303 305 306 307 307 309 312 312 312 312 312 313 311 311 314 313 317 318 310 310 312 311 312 314 314 312 314 315 313 313 314 315 315 315 316 316 317 317 318 318 318 318
295 294 293 294 295 295 295 296 297 297 297 298 298 298 298 298 298 298 298 298 299 300 299 300 300 301 301 299 299 299 299 300 300 300 300 300 300 300 302 302 300 301 301 302 303 303 304 306 307 308 309 310 312 313 312 311 311 313 311 311 312 312 314 315 312 309 309 309 310 313 313 313 315 313 311 312 312 312 312 313 314 315 316 316 317 317 318 318
294 294 293 294 295 295 296 296 297 297 297 298 298 298 298 298 298 298 299 299 299 300 299 300 300 302 302 300 299 300 299 299 300 300 299 300 300 300 303 303 301 301 302 303 305 305 306 308 309 310 310 310 311 312 311 309 310 311 311 310 310 310 312 313 313 309 307 309 310 311 311 311 313 310 309 311 311 311 310 310 311 312 313 314 316 316 317 317
294 294 294 295 295 295 296 296 297 297 297 297 298 298 298 298 298 298 299 299 299 300 301 300 300 302 302 299 300 300 299 299 300 300 299 300 300 300 302 302 301 301 302 303 305 305 307 308 309 310 310 309 310 310 309 308 309 309 308 309 309 309 310 310 312 310 309 310 310 311 311 310 311 310 309 311 311 311 310 310 310 310 311 312 313 314 315 316
294 294 294 294 295 295 296 296 296 297 297 297 298 298 298 298 298 297 298 300 300 300 301 300 299 300 300 299 300 299 298 299 300 300 299 299 300 300 301 301 301 302 303 305 304 304 307 308 308 309 307 307 309 309 308 308 309 309 309 310 310 310 310 309 310 310 309 309 310 310 311 310 310 310 309 310 311 310 310 310 311 310 311 311 312 312 313 314
293 294 294 294 295 295 296 296 296 297 297 297 297 298 298 298 299 299 298 299 299 299 299 299 299 300 299 299 300 298 298 299 300 300 299 299 300 300 301 301 302 302 304 304 304 304 306 307 307 307 306 307 310 311 310 309 310 310 310 310 310 310 309 309 310 310 309 309 310 310 310 309 308 308 308 308 309 309 309 309 310 311 311 311 311 312 312 313
294 293 294 294 294 295 296 296 296 297 298 298 297 298 299 298 299 299 298 298 298 298 299 299 300 301 299 300 299 298 299 299 299 300 299 299 300 300 301 301 302 303 303 302 302 304 306 306 306 306 306 307 309 310 310 309 309 310 310 310 310 309 309 309 309 310 308 309 310 309 310 308 307 309 308 308 309 309 309 309 309 311 311 312 311 311 312 312
294 294 294 294 294 295 296 295 296 298 298 298 298 298 298 297 298 298 298 299 298 297 299 300 301 301 299 299 299 298 299 300 300 300 299 299 299 301 301 301 302 303 302 302 303 304 304 305 306 305 305 306 307 309 309 308 308 309 310 310 310 310 310 310 309 310 309 309 310 310 310 310 309 309 309 308 308 309 309 309 310 311 311 312 312 312 312 312
294 294 294 294 294 294 295 295 296 297 298 298 298 299 298 298 298 298 299 300 299 297 298 300 301 300 299 299 299 298 299 300 300 299 299 299 300 301 301 302 303 303 302 303 304 303 303 304 304 303 304 305 307 307 308 308 308 309 309 309 308 309 310 310 310 311 310 309 310 310 310 310 310 310 310 308 307 307 309 309 310 311 311 312 313 313 312 312
294 294 294 293 293 294 295 295 295 297 298 298 299 299 299 298 298 298 299 298 298 297 297 300 300 300 299 299 298 298 299 300 300 299 299 299 300 301 301 302 303 303 302 303 303 303 303 303 303 304 305 306 307 307 307 308 308 308 309 309 308 308 309 310 310 310 310 309 310 311 311 311 309 310 309 307 307 308 308 309 309 310 311 312 313 314 313 313
293 294 294 293 293 294 295 295 295 297 298 299 299 299 299 299 298 298 298 297 297 297 297 299 300 299 298 299 298 298 299 300 299 299 298 298 300 302 302 301 303 303 303 303 303 303 304 303 303 306 307 307 307 307 307 307 308 308 308 308 308 308 309 309 309 310 310 310 310 311 312 312 309 311 312 310 311 311 308 308 309 309 311 311 312 313 314 314
292 293 293 294 294 295 295 295 295 296 298 299 299 299 299 299 298 298 299 301 300 297 297 299 299 299 298 298 298 298 300 301 299 298 298 299 301 302 303 302 302 303 303 303 303 303 305 304 303 306 307 306 307 306 306 306 307 308 307 306 307 307 308 309 309 310 311 311 310 311 312 313 311 311 314 315 315 313 310 311 310 307 309 310 310 312 313 313
292 292 293 293 294 295 295 295 295 296 298 298 298 299 299 298 299 298 299 304 301 295 296 299 299 298 298 298 297 298 300 300 299 298 298 300 300 301 302 303 302 302 302 302 303 303 304 303 303 306 306 304 304 305 306 306 306 307 307 306 306 305 307 309 309 310 311 311 311 311 311 313 313 311 312 313 313 313 312 312 311 307 308 310 310 310 311 311
292 291 292 293 294 295 295 295 295 296 297 298 298 299 298 299 298 297 301 303 297 295 297 298 298 298 298 298 297 298 298 299 299 298 298 299 299 299 301 303 302 301 300 301 302 302 303 303 303 304 303 302 303 304 306 305 305 306 306 306 305 305 306 308 310 310 310 311 311 312 312 313 312 311 312 311 311 313 313 313 313 309 308 310 310 310 310 310
291 291 292 292 293 295 295 294 295 296 297 297 298 298 298 298 296 298 304 301 295 295 297 297 298 298 297 298 297 297 297 298 298 297 297 299 299 299 301 302 301 301 301 301 302 302 301 301 302 303 304 304 304 304 305 305 305 305 305 304 305 306 307 309 310 310 310 310 310 311 313 313 311 310 312 311 310 312 313 312 312 307 306 309 309 309 308 308
291 291 292 292 293 294 294 294 295 296 297 297 298 298 298 297 299 304 305 298 294 296 297 297 298 297 297 298 297 297 297 297 297 297 297 297 298 299 300 301 300 301 302 302 302 301 299 299 301 303 304 304 304 304 304 305 305 304 305 306 306 307 307 308 309 309 309 309 309 311 312 312 311 311 313 314 311 310 310 310 310 307 305 308 307 307 307 307
291 292 292 292 293 293 293 295 295 297 297 297 298 298 297 296 302 307 300 294 295 297 297 298 297 297 297 297 297 297 296 296 296 296 297 297 298 298 299 300 299 299 300 300 300 299 300 302 301 302 303 301 303 306 304 305 305 304 306 306 306 307 307 307 308 308 308 308 308 311 312 312 312 312 313 314 312 310 309 308 309 307 305 305 306 307 308 309
292 292 293 293 294 294 295 296 297 297 296 297 298 297 298 299 301 300 296 295 296 296 297 297 297 297 297 296 297 296 296 297 296 296 296 296 298 298 299 300 299 298 299 298 298 298 300 302 299 301 303 299 301 304 302 304 306 304 305 306 307 309 309 308 309 308 307 307 308 311 313 312 311 311 311 311 311 309 308 306 306 306 304 304 306 307 307 307
292 293 294 295 296 296 296 296 297 297 296 298 297 296 302 306 300 296 296 298 296 295 295 296 297 297 297 297 297 295 296 298 296 296 296 296 298 299 298 299 299 299 299 297 297 298 299 301 299 300 302 298 299 301 299 300 302 301 303 305 306 308 308 308 309 308 308 308 308 309 311 311 311 312 311 310 309 307 305 304 304 304 304 304 305 305 305 305
293 294 295 296 297 297 297 296 296 296 296 296 295 297 303 303 297 294 297 298 296 294 295 297 297 297 297 297 296 296 297 298 296 296 296 296 299 299 298 299 299 299 299 298 298 297 298 301 301 299 299 298 299 300 298 299 299 300 304 305 306 307 307 307 308 308 308 308 308 309 310 310 312 315 311 306 305 303 302 302 302 302 303 303 303 303 303 303
293 295 296 297 297 297 296 296 295 295 295 295 298 301 301 299 295 295 298 298 297 297 297 297 297 297 299 298 296 296 297 298 297 296 297 297 297 298 298 300 299 298 298 298 298 298 297 299 299 298 298 298 298 298 297 299 302 303 306 306 306 305 303 303 306 307 307 307 308 310 311 311 312 313 307 303 304 303 301 301 301 301 301 301 301 302 302 302
295 296 297 298 297 297 297 296 294 294 293 296 303 303 299 297 295 295 297 297 297 298 298 298 297 298 299 298 298 297 296 298 297 297 297 297 296 297 298 299 299 298 298 298 298 299 298 299 299 299 299 298 298 297 297 300 302 303 305 304 303 303 302 304 306 306 306 307 308 309 310 310 309 309 306 306 307 305 303 301 300 300 300 300 300 301 301 301
295 297 297 298 297 297 297 295 294 293 294 297 304 302 296 296 295 295 297 297 297 298 297 298 298 298 298 297 298 297 297 298 297 297 298 297 297 297 298 299 298 297 297 298 298 299 298 299 299 299 300 299 297 296 297 299 300 301 302 302 301 302 304 305 306 306 307 307 308 309 310 309 308 308 308 309 307 305 304 302 299 299 299 299 299 300 300 300
295 297 297 297 298 297 295 294 294 293 294 298 301 299 295 296 295 295 297 296 297 298 298 298 298 297 297 297 297 297 297 297 297 297 297 297 297 296 297 299 298 296 296 297 299 299 298 299 299 298 299 298 297 298 299 299 298 298 299 300 302 303 303 303 304 305 305 304 305 307 308 307 308 309 309 308 306 304 304 302 300 299 299 298 299 299 300 299
294 298 298 297 298 296 293 294 294 294 296 299 299 297 295 295 296 296 297 297 297 298 298 298 298 297 297 297 297 297 297 297 297 297 296 296 297 296 297 298 297 296 296 297 298 299 298 298 298 298 298 298 299 299 299 298 298 298 299 300 302 303 303 303 303 304 303 302 302 302 302 303 307 309 307 304 303 304 303 301 300 299 298 298 299 299 299 299
292 296 297 297 297 295 294 296 295 295 297 296 295 295 294 295 297 297 298 298 297 297 298 298 297 297 297 297 297 296 297 297 297 297 297 297 297 297 297 296 296 297 296 296 298 298 298 298 297 298 299 298 298 298 298 297 297 298 300 300 300 300 301 302 302 303 303 300 299 299 300 300 303 306 304 302 303 303 302 300 299 299 299 298 298 298 299 298
291 295 297 296 296 295 295 296 294 294 295 294 294 295 295 296 298 298 298 298 297 297 297 297 297 297 297 296 297 297 297 297 297 297 297 297 296 297 297 295 295 296 296 296 298 298 298 298 298 299 299 298 298 298 297 298 297 297 299 300 299 300 301 299 299 301 300 299 298 299 299 299 299 301 302 303 303 301 300 299 298 298 298 298 298 298 298 298
293 296 296 295 295 295 295 295 292 292 295 295 295 296 296 296 297 297 297 297 296 296 295 296 297 297 297 297 297 298 297 297 297 298 298 297 297 297 296 295 294 294 295 296 297 298 298 298 299 299 299 298 299 297 296 295 296 297 299 301 301 301 301 299 298 298 298 298 298 299 299 299 298 300 302 303 300 298 298 297 297 297 298 298 298 298 298 298
294 296 295 294 295 295 296 296 293 292 295 295 294 294 294 294 295 296 296 295 294 294 294 296 297 296 297 297 297 298 297 297 297 298 298 297 297 297 295 294 294 293 294 295 296 297 297 297 298 299 299 299 299 298 296 295 297 298 299 300 301 300 300 299 298 298 298 298 298 298 299 299 298 299 300 299 297 297 297 297 296 297 297 297 298 298 298 298
293 295 294 294 295 295 296 296 295 294 294 294 293 293 293 293 294 296 296 295 293 293 295 297 296 295 296 296 296 297 297 297 297 297 297 296 297 296 294 294 293 292 293 294 294 295 296 297 298 298 298 297 298 299 299 298 299 298 298 299 299 298 298 298 298 298 298 298 298 298 298 297 297 299 298 297 297 296 296 296 297 297 297 297 297 297 298 298
292 294 293 293 294 295 294 294 294 295 294 294 294 293 293 294 294 294 294 293 292 293 294 296 296 295 295 295 296 296 296 296 296 296 295 295 295 294 293 293 292 291 292 292 293 295 296 297 298 298 298 297 296 297 297 297 298 297 297 298 298 298 297 298 298 297 298 298 297 297 297 296 296 297 296 296 297 296 296 296 297 297 297 297 297 298 298 298
292 294 293 293 293 294 293 292 293 295 294 293 293 292 292 294 293 292 292 293 293 293 294 295 296 295 294 293 293 293 293 295 296 295 293 293 293 293 292 292 291 291 292 293 294 296 297 298 298 298 298 298 297 297 297 297 297 297 297 298 298 297 297 297 298 297 298 298 297 297 296 296 297 296 296 297 296 296 296 296 296 297 297 297 297 298 298 298
292 293 293 293 293 293 293 292 291 293 292 292 292 291 292 293 292 291 292 293 293 293 294 294 294 294 293 291 291 291 292 292 293 292 291 292 292 292 291 291 291 291 293 294 295 296 296 296 296 296 296 296 296 297 297 297 297 298 298 298 298 297 297 297 298 297 297 297 297 297 297 297 297 296 296 296 296 296 296 296 296 297 297 297 297 298 298 298
292 292 292 292 292 293 293 292 291 291 291 290 291 291 292 293 292 292 293 292 292 293 293 294 293 292 291 290 290 292 292 290 290 291 291 292 291 290 290 291 291 291 292 293 294 294 293 293 293 293 293 294 294 295 295 295 295 295 296 296 296 296 296 297 297 297 297 297 297 297 297 297 296 296 296 296 296 296 296 296 296 296 297 297 297 297 298 298
291 292 292 292 292 293 292 291 291 291 290 291 292 292 292 293 293 292 292 292 293 293 292 293 293 291 291 290 290 291 291 290 290 291 290 290 290 290 291 291 291 291 292 292 292 292 291 292 292 292 292 292 292 293 293 293 293 293 293 293 294 294 295 295 296 296 296 297 297 296 296 296 296 296 296 296 296 296 296 296 296 296 296 296 297 297 297 297
292 292 292 291 291 291 291 291 291 291 291 291 292 292 292 293 293 292 291 292 293 293 291 292 293 291 290 290 290 290 290 290 290 290 290 290 290 290 290 291 291 292 291 291 291 291 291 292 292 292 291 291 291 292 292 292 292 292 292 292 293 293 294 294 294 295 295 296 296 296 296 296 296 296 296 296 296 296 296 296 296 296 296 296 296 297 297 297
292 292 291 291 292 291 291 291 290 291 292 292 291 291 292 293 293 291 291 291 291 292 292 292 292 291 290 290 290 290 290 290 290 290 290 290 290 290 290 291 291 291 290 290 291 291 291 291 291 291 291 291 291 291 291 291 291 291 291 292 292 293 293 293 294 294 295 296 296 296 296 296 296 296 296 296 295 295 295 295 295 296 296 296 296 296 296 297
292 292 291 292 292 291 290 290 289 290 293 292 291 291 292 293 292 290 291 291 290 291 291 290 290 290 290 290 290 290 290 290 290 290 290 290 290 290 290 290 290 290 290 290 291 291 291 290 291 291 291 291 291 291 292 292 291 291 293 294 294 293 293 293 294 295 295 296 296 296 296 296 296 296 296 296 295 295 295 295 295 295 295 295 296 296 296 297
Wind_Speed
20 20 20 21 22 21 21 22 22 22 22 22 23 23 24 24 24 24 23 22 22 22 22 23 24 25 25 24 25 24 22 14 3 5 12 15 14 13 13 15 17 19 21 19 18 20 20 15 12 11 12 10 8 7 8 9 9 8 3 3 5 4 5 5 6 6 3 2 2 2 5 3 3 4 4 4 6 12 13 14 15 17 23 23 17 13 10 9
20 20 21 22 22 21 21 21 21 22 22 22 23 23 24 24 25 25 24 23 23 22 21 22 23 24 24 23 23 22 20 10 3 7 13 14 13 12 13 15 16 18 20 19 17 20 22 20 15 14 13 8 5 5 5 6 10 8 2 3 6 5 5 6 7 6 4 5 4 6 7 2 4 6 6 5 5 5 6 11 14 17 21 25 23 18 14 12
20 21 22 22 21 21 21 21 22 22 22 23 23 24 24 25 25 24 24 24 23 22 21 21 20 22 22 22 22 20 19 8 4 10 13 16 17 15 16 15 16 17 18 18 17 19 21 20 15 15 15 9 5 4 4 5 7 7 5 4 6 5 5 7 8 8 10 9 5 7 7 4 8 9 6 5 6 4 4 9 10 16 22 25 26 25 20 15
20 20 21 21 21 22 22 22 23 23 23 23 24 24 24 25 25 25 24 23 22 21 20 19 19 20 21 22 20 18 18 7 6 14 17 19 19 17 19 18 17 16 16 16 16 16 17 16 12 12 11 7 6 5 4 5 5 4 6 5 4 3 4 8 11 14 15 13 8 6 7 9 13 10 6 6 6 5 7 13 13 17 24 26 27 28 25 19
19 20 21 22 22 23 23 23 23 23 23 23 23 23 23 24 24 25 25 23 21 20 20 20 19 19 19 21 19 18 16 5 7 18 20 23 23 19 19 20 19 17 16 16 16 16 15 14 11 8 8 5 6 5 3 3 3 3 5 6 4 2 3 7 10 12 14 13 9 6 4 9 13 8 8 8 5 7 12 16 16 17 22 24 27 27 26 24
19 21 22 23 24 23 23 23 23 23 23 23 23 22 22 23 24 24 25 24 22 21 21 20 19 19 20 21 18 18 13 4 13 23 22 25 24 22 19 18 19 18 17 16 16 15 13 14 11 9 9 5 4 3 7 12 8 4 5 6 7 5 4 9 12 11 12 12 8 5 5 8 11 10 11 11 11 15 18 18 19 19 18 21 24 25 26 27
20 22 23 23 23 23 22 22 22 22 22 22 22 22 22 23 23 24 24 23 22 21 20 20 19 20 22 21 17 17 19 14 21 24 23 24 22 21 19 17 18 18 18 16 16 14 13 14 13 12 8 3 4 5 11 19 13 5 4 7 10 11 8 11 17 17 17 15 14 13 11 9 9 11 11 11 15 20 20 17 19 20 18 20 23 26 28 30
21 21 22 22 22 22 22 21 22 22 22 22 22 22 22 23 22 22 22 21 20 18 18 19 19 22 22 22 18 16 22 24 25 24 23 24 22 20 18 16 15 16 16 13 13 13 12 12 13 11 5 4 7 7 11 16 10 3 3 8 11 14 14 17 21 23 21 17 17 15 12 12 15 14 12 16 21 24 25 23 21 21 20 20 22 26 29 31
21 21 21 21 21 21 21 21 22 22 21 21 21 22 21 21 20 20 18 17 18 16 17 19 19 21 19 23 21 13 19 26 24 24 23 24 25 22 18 16 13 14 13 11 10 11 11 10 10 9 4 7 9 8 10 8 3 2 5 11 12 15 19 21 21 21 21 16 13 10 9 14 17 13 13 21 25 24 27 26 24 25 24 22 20 25 29 31
20 21 21 21 21 21 22 22 22 21 20 20 20 21 20 20 18 16 15 15 17 16 17 19 18 18 17 23 24 12 18 26 23 25 23 24 27 23 17 13 13 13 13 13 10 9 11 10 10 12 7 8 7 8 9 3 4 11 15 15 14 17 19 18 18 19 21 17 14 10 9 15 16 10 7 12 14 13 16 17 17 20 23 23 20 22 27 31
20 21 21 20 21 22 22 22 22 21 19 19 19 20 19 19 16 13 14 15 16 16 16 17 16 16 15 21 22 13 20 26 23 25 25 27 27 24 18 13 13 13 13 15 13 11 11 11 12 11 5 5 7 10 9 5 9 18 20 16 14 15 17 14 14 17 15 11 12 9 9 14 12 8 8 13 19 20 20 19 19 19 19 20 18 18 24 30
19 20 20 20 21 22 22 22 22 21 20 20 19 19 19 16 14 12 15 15 15 15 15 14 13 15 13 15 20 19 22 24 24 25 25 28 27 22 18 13 12 12 12 15 16 13 11 12 12 9 6 7 8 7 7 10 16 19 14 9 10 11 11 10 9 14 10 5 8 5 8 12 8 9 12 19 26 26 25 25 26 25 23 22 20 19 20 26
18 19 19 19 20 21 22 22 23 22 21 20 19 19 16 14 13 14 15 13 15 17 17 13 10 15 13 9 18 24 23 24 24 25 25 27 26 20 15 12 11 10 10 11 15 16 12 12 12 11 11 9 6 7 11 15 15 13 7 3 6 7 7 6 5 9 8 7 7 1 7 12 7 11 17 21 25 23 22 24 24 25 26 25 24 23 21 22
17 19 18 17 19 21 22 23 23 22 22 21 19 17 13 11 13 15 12 12 19 22 20 15 8 13 13 8 18 26 23 24 24 26 29 29 28 24 17 12 9 8 10 9 12 16 13 11 12 12 11 9 7 10 12 11 8 6 5 3 2 3 5 7 6 2 3 8 11 7 8 12 3 5 10 14 20 21 22 24 25 26 26 27 26 26 25 23
16 17 17 17 18 21 22 23 23 23 23 21 19 15 10 10 14 15 9 9 15 22 24 18 6 8 13 10 18 24 21 24 28 30 31 31 31 30 24 17 12 9 11 12 11 14 15 11 9 9 9 9 8 7 6 4 3 3 5 5 2 2 4 10 9 3 2 6 10 11 7 9 3 7 10 9 12 15 18 20 22 23 25 28 29 28 28 27
15 16 16 15 17 20 21 23 24 24 23 22 19 14 7 8 14 15 10 6 8 16 26 24 9 5 11 13 20 25 25 25 28 31 30 30 31 29 24 21 17 12 11 12 10 11 13 9 8 7 6 5 3 2 3 4 4 2 2 5 3 3 3 7 8 2 2 4 4 7 6 5 3 6 10 8 7 9 12 16 18 21 22 24 27 28 29 30
15 15 15 15 17 19 21 22 23 24 23 22 21 14 6 7 14 15 12 9 5 8 20 26 16 2 5 21 27 31 32 24 24 30 31 29 29 26 20 21 22 17 15 11 8 7 7 5 4 4 1 0 1 2 2 4 4 2 2 3 3 4 4 4 5 7 8 5 4 6 7 9 6 10 19 20 18 15 14 18 21 21 22 22 23 25 26 27
14 15 14 13 16 18 20 21 23 25 24 23 23 14 5 5 11 16 13 10 7 5 10 23 25 5 3 26 29 29 32 22 22 30 31 28 28 23 17 22 23 18 17 10 9 11 5 3 2 0 1 0 1 1 3 4 1 2 3 2 4 3 4 4 4 7 11 9 7 8 10 13 9 8 16 23 25 21 18 22 25 24 23 22 23 23 25 27
13 14 13 12 15 17 19 20 22 24 24 24 23 12 4 3 7 14 16 15 14 8 3 14 20 6 6 23 26 27 28 19 19 28 31 30 29 23 16 23 22 16 14 7 9 13 6 4 3 1 3 1 2 3 6 7 5 6 5 4 7 6 5 5 5 6 8 10 11 9 9 12 11 9 9 17 24 23 22 24 25 27 25 24 25 24 25 26
13 13 12 11 13 16 17 19 21 23 24 26 23 10 8 11 6 9 17 18 17 11 4 9 11 4 11 22 24 31 28 18 19 27 31 31 31 24 19 25 22 15 10 4 7 10 6 3 2 3 3 2 3 4 5 7 7 7 6 7 9 7 7 7 5 7 5 6 9 9 12 14 14 11 7 15 21 17 18 19 21 26 26 25 25 26 27 28
12 12 12 10 12 14 15 18 19 22 23 24 23 16 16 16 7 7 16 12 13 14 9 12 11 9 20 23 24 33 28 18 21 27 29 31 30 21 19 23 15 9 9 7 6 5 5 3 3 4 3 3 5 6 5 6 5 5 5 7 9 6 8 8 6 8 5 4 7 7 11 15 14 11 8 12 14 12 13 14 18 26 28 28 26 25 27 27
11 11 12 10 10 11 13 15 18 19 19 20 22 22 19 16 11 9 12 5 8 15 12 13 12 13 24 23 23 33 25 14 19 28 31 32 29 19 16 16 7 4 8 7 6 4 4 2 3 7 6 5 6 6 6 5 4 5 5 6 8 6 6 6 4 5 4 2 6 7 9 14 14 11 11 11 11 14 19 19 22 27 29 30 29 27 26 26
10 11 11 10 9 9 10 13 15 15 15 18 21 21 16 15 15 13 10 4 5 14 13 14 13 16 26 24 26 32 20 9 14 27 33 31 29 21 14 9 4 5 6 6 6 4 3 3 7 11 8 5 6 5 4 5 3 4 4 5 8 6 4 4 2 4 6 4 6 9 9 13 13 9 9 13 16 19 24 26 28 28 29 32 34 32 30 29
9 11 11 10 8 7 8 10 13 13 13 17 17 17 15 14 15 13 10 2 2 11 13 13 13 17 25 24 26 26 15 10 15 24 32 29 27 19 9 6 5 5 6 7 7 5 5 7 10 10 5 3 5 4 3 4 3 4 6 5 8 7 6 7 5 6 8 7 7 8 8 10 9 6 7 10 13 15 17 20 23 26 27 30 33 33 33 32
9 11 11 10 8 7 7 7 12 13 11 13 13 13 13 12 14 13 9 2 1 10 12 11 10 16 24 23 25 22 9 10 19 24 29 27 23 14 7 7 4 4 8 9 7 4 5 6 7 7 4 3 3 4 3 3 4 4 4 5 7 7 7 8 7 5 5 5 5 4 5 7 5 3 6 5 4 7 7 8 14 20 21 22 25 28 30 31
9 10 11 11 9 8 7 6 12 13 9 10 12 12 11 11 13 10 5 4 2 7 9 10 7 13 23 23 27 21 3 9 20 22 24 23 19 10 5 7 3 3 7 7 5 2 3 5 5 5 5 5 4 4 3 2 3 3 1 2 3 3 5 6 5 3 3 4 3 4 3 8 6 3 5 5 5 7 7 6 10 16 19 19 21 24 26 28
8 10 11 11 10 9 9 8 12 12 9 10 11 12 10 11 12 7 3 5 4 6 6 8 6 11 21 21 24 17 1 13 20 21 23 21 19 10 3 5 4 3 5 4 4 2 3 8 6 4 5 5 5 4 2 3 2 3 1 4 5 5 5 5 4 3 3 4 4 2 3 7 8 5 4 5 6 8 8 9 10 15 20 22 22 23 24 25
9 10 10 10 9 8 9 9 11 11 10 11 11 11 10 11 10 3 4 5 4 6 4 6 8 14 23 21 20 16 7 11 12 18 24 20 20 12 3 4 4 6 6 1 3 4 3 5 5 5 5 3 3 4 4 2 2 4 2 4 5 5 5 4 3 3 3 4 4 3 4 5 8 5 2 3 4 6 7 9 8 12 18 22 23 24 23 24
10 10 10 9 7 7 9 9 11 11 11 11 10 10 11 11 7 2 6 3 3 5 4 9 11 16 27 21 15 20 16 7 6 18 23 20 22 15 3 5 5 6 4 1 1 4 5 6 4 3 2 2 4 7 5 2 3 5 5 6 5 5 6 5 4 3 3 4 4 4 4 4 9 6 3 3 2 4 7 7 7 10 16 19 20 21 21 24
10 10 10 9 6 6 7 7 10 10 11 11 9 10 11 8 3 4 5 1 1 5 6 8 10 15 24 14 9 19 15 6 12 21 22 19 24 21 6 6 6 4 2 2 2 5 10 9 2 1 1 4 6 7 6 5 5 5 6 5 6 5 3 2 2 2 2 3 5 7 8 7 7 4 1 1 2 3 5 6 7 9 14 18 20 23 25 26
9 9 9 8 6 5 5 5 7 8 10 11 9 11 8 4 4 6 2 2 1 6 6 6 8 12 15 6 3 14 11 6 14 17 14 14 16 20 13 4 6 4 3 4 4 7 10 5 1 2 2 5 5 5 6 4 1 2 3 3 4 4 1 2 2 1 1 4 6 7 8 10 7 3 1 4 4 4 4 5 7 8 14 20 22 23 23 22
8 7 7 7 6 6 6 6 7 8 10 10 10 10 3 2 5 2 2 4 2 3 3 3 7 9 8 3 1 8 6 5 11 11 6 6 6 9 9 5 5 6 6 7 7 9 7 2 5 5 3 11 8 4 7 6 3 3 3 3 3 3 3 3 2 1 2 4 5 4 3 6 7 9 10 10 9 8 6 4 6 8 13 20 20 19 20 21
6 5 5 6 6 7 7 7 8 9 9 11 11 7 4 5 2 2 2 4 1 2 2 2 6 7 5 4 4 6 4 2 8 10 5 3 4 4 4 4 5 3 2 4 5 8 5 4 8 6 5 12 10 4 8 6 4 6 4 4 3 2 3 2 2 1 2 5 4 2 1 2 5 8 9 8 7 6 7 8 10 10 14 18 19 22 25 27
4 3 3 4 5 6 7 7 9 9 9 11 9 3 6 4 1 2 2 3 3 3 3 3 6 6 3 3 3 5 3 2 6 9 6 4 5 4 4 6 7 4 1 2 3 4 4 5 6 5 6 10 7 4 5 5 5 5 3 3 3 2 3 3 2 2 3 4 4 2 0 1 4 4 1 3 4 8 11 13 15 17 21 23 24 27 30 32
2 1 2 3 4 5 7 7 8 9 10 10 6 5 5 1 2 1 2 4 3 2 4 5 4 3 3 3 3 4 3 2 6 7 4 4 3 3 4 4 6 6 4 4 2 1 2 5 4 6 8 5 6 10 6 2 2 4 2 1 3 3 2 2 4 5 4 4 3 1 1 2 4 5 5 7 6 10 13 16 18 20 25 29 30 32 32 33
1 0 1 2 4 5 7 7 8 9 10 7 6 5 1 3 3 2 2 2 1 2 5 6 3 2 3 4 3 5 2 1 4 5 3 4 2 3 3 2 4 6 5 4 3 2 3 5 6 12 8 1 8 14 6 1 3 3 3 3 5 3 1 2 5 5 2 3 2 0 2 3 3 5 6 8 8 11 13 16 17 20 26 30 30 31 33 33
1 1 1 2 4 7 7 8 8 8 6 5 6 2 2 2 3 3 1 1 1 2 3 3 2 2 3 3 3 5 5 2 3 4 3 4 2 2 4 2 3 6 4 2 1 1 3 6 7 6 4 6 16 16 3 3 5 2 1 5 7 2 1 1 3 3 2 2 2 2 2 4 3 3 6 10 11 12 12 12 15 20 26 28 28 31 33 34
1 2 1 3 5 8 9 8 7 4 3 6 5 2 1 1 2 3 3 3 1 2 3 1 2 1 2 2 3 4 5 4 4 3 2 2 1 2 2 2 4 8 8 3 0 1 2 5 5 0 2 10 15 10 3 5 7 3 2 6 3 2 2 4 3 3 4 3 4 4 4 4 2 3 5 9 12 13 12 12 14 18 21 23 27 30 32 34
1 2 2 4 5 8 9 7 4 2 6 5 2 1 0 1 3 3 4 4 1 1 1 2 2 1 2 2 3 4 4 4 4 3 1 1 1 2 1 1 5 13 15 8 1 1 2 2 3 1 5 9 8 5 4 6 6 4 3 3 2 1 2 2 2 2 3 3 4 6 6 4 3 2 4 9 12 10 9 12 14 17 21 24 25 28 30 32
0 1 2 5 6 8 7 5 5 6 6 3 3 2 1 2 4 5 5 4 1 1 1 1 1 0 2 2 3 3 3 5 4 2 1 0 2 4 2 2 5 11 16 10 1 1 1 1 4 4 6 6 4 3 3 5 4 3 4 5 4 2 1 2 2 2 1 2 3 4 5 6 5 2 5 11 10 5 6 10 13 18 27 30 29 30 31 31
2 1 3 5 6 7 6 5 8 7 3 1 1 1 1 2 3 5 4 3 1 1 1 1 1 1 1 2 3 2 3 5 4 1 2 1 1 2 4 9 9 8 9 7 3 2 1 1 4 7 6 4 5 6 4 4 3 2 0 3 3 3 2 3 2 1 1 0 2 3 5 9 8 3 4 8 6 5 10 13 14 21 28 31 32 33 32 33
4 2 3 6 6 7 6 5 6 5 2 1 1 1 2 4 3 2 3 3 2 2 2 1 1 1 2 2 1 2 3 4 4 1 2 2 2 3 4 14 16 11 7 4 3 2 1 2 3 7 6 5 11 9 2 1 2 2 0 2 2 2 3 2 3 4 2 1 2 2 3 10 12 4 2 6 8 13 20 18 16 21 27 28 30 33 33 34
5 3 4 6 6 7 6 4 4 3 1 1 3 3 3 3 1 2 3 3 2 3 2 1 1 1 1 1 1 1 3 4 4 2 1 2 2 2 7 15 17 13 7 3 3 4 3 2 2 6 5 5 9 6 4 3 3 3 2 2 2 1 2 3 2 4 4 2 2 2 4 10 11 2 1 9 18 23 25 21 18 21 27 28 29 31 33 35
5 4 5 6 7 7 4 2 1 2 2 3 4 4 4 2 1 1 2 2 2 1 0 1 2 2 1 2 1 1 2 2 1 2 3 0 2 8 13 17 18 12 5 3 4 5 4 2 2 6 6 4 4 5 5 5 3 1 3 2 2 1 0 1 1 2 3 3 2 3 5 9 9 5 6 13 19 20 21 23 22 22 26 30 32 33 33 34
3 3 5 8 8 7 6 5 3 2 1 2 3 5 4 1 1 2 3 4 3 2 2 2 3 0 2 3 2 1 2 1 0 3 4 2 5 10 13 19 22 15 13 16 15 8 3 3 3 4 5 5 6 5 5 6 5 4 3 2 3 3 1 1 2 3 4 4 4 5 7 12 16 17 17 17 14 14 20 27 27 24 27 32 35 37 36 35
3 2 3 6 9 11 11 8 5 2 0 2 2 2 2 1 3 4 4 3 2 2 2 3 2 1 2 4 3 2 2 1 1 2 4 4 4 5 12 22 24 19 19 20 15 8 2 2 4 6 7 8 8 9 9 9 10 10 9 9 8 5 5 4 3 4 5 5 7 10 11 16 21 21 20 20 17 14 17 24 28 28 30 34 36 39 40 38
4 1 1 3 5 8 9 7 7 4 2 1 1 1 0 1 3 4 3 1 3 6 3 0 2 2 2 4 3 3 4 4 3 3 5 4 3 7 16 20 16 14 14 12 9 5 1 2 5 8 11 11 12 14 14 12 14 15 16 16 13 9 8 8 8 10 7 5 10 12 11 15 20 20 19 21 20 16 14 20 28 30 31 33 36 38 40 41
3 2 3 3 1 1 3 4 5 4 2 2 1 1 0 2 2 2 2 2 6 5 1 2 3 3 2 2 1 2 4 5 5 4 3 3 3 6 11 11 9 10 10 9 7 6 1 4 5 8 11 12 12 14 14 13 14 15 16 17 16 14 13 13 15 15 9 8 13 15 15 18 20 19 19 20 21 19 18 23 29 31 31 32 33 34 37 40
5 4 4 3 1 3 3 1 1 2 1 1 0 1 1 1 2 2 2 2 5 4 1 0 1 3 2 1 1 2 3 3 5 4 2 4 5 4 5 6 8 9 7 5 5 4 1 4 4 5 9 11 10 12 14 14 14 16 16 16 15 16 16 16 16 15 13 15 18 19 21 21 19 18 19 23 27 27 26 27 28 29 30 31 30 31 33 38
4 3 3 2 2 4 4 2 2 2 1 1 1 2 2 3 3 2 1 2 2 3 0 1 2 1 2 2 2 3 5 5 6 6 4 4 4 3 2 3 4 6 6 3 3 3 2 2 3 5 8 9 8 10 12 12 13 17 18 15 15 17 18 17 15 13 12 14 17 18 19 17 16 18 20 24 29 27 24 26 27 28 30 31 29 30 32 36
1 1 2 3 2 2 4 4 4 3 1 0 2 2 1 2 3 1 2 6 7 5 3 3 2 1 1 3 4 8 11 11 11 13 12 11 9 8 6 6 7 7 6 3 2 1 1 3 5 5 7 8 5 8 11 11 14 18 17 15 17 17 15 12 11 8 8 12 14 13 12 11 13 15 16 19 21 19 20 25 27 29 33 32 28 29 32 35
2 1 1 1 0 2 4 4 3 2 1 2 4 4 3 4 3 1 1 4 6 7 7 6 3 0 2 6 9 11 15 14 15 18 19 18 20 21 20 20 19 14 7 3 1 1 2 4 4 3 6 7 5 6 10 10 12 13 9 10 14 13 11 11 9 8 9 10 9 8 9 10 12 13 13 14 15 16 20 25 26 30 34 30 26 29 34 36
Wind_Direction
16 14 11 10 10 9 9 7 6 6 5 4 2 1 358 355 351 348 345 341 337 335 334 334 335 338 342 345 346 346 355 9 16 358 13 14 352 332 332 326 324 326 323 319 317 320 321 317 309 303 294 285 270 264 258 237 204 188 152 194 218 203 205 189 187 203 189 257 292 25 4 337 298 320 309 305 242 233 239 234 232 226 220 224 234 239 251 241
14 13 11 8 8 8 9 7 5 5 4 2 1 359 358 354 350 347 344 340 338 336 335 336 337 339 342 345 345 346 355 10 34 20 16 356 330 323 327 323 324 325 327 330 330 335 339 336 330 328 323 308 268 240 241 214 194 193 144 207 226 201 199 190 188 203 215 251 277 312 331 324 260 317 334 310 283 256 250 249 238 236 231 227 232 238 247 241
13 13 11 8 7 9 11 9 6 3 1 0 359 358 355 352 349 347 345 341 339 338 337 338 339 340 341 343 345 347 352 8 51 6 356 344 327 312 312 318 322 320 326 335 336 337 338 339 335 332 330 316 279 248 242 196 193 209 191 230 239 211 230 222 216 223 235 257 289 302 301 290 275 290 309 293 301 310 235 249 244 238 239 232 232 235 239 235
13 13 10 8 7 10 11 9 5 2 0 358 357 356 353 349 348 347 347 344 341 339 337 338 340 342 342 343 348 352 351 14 48 355 338 340 333 313 304 306 312 313 317 321 325 326 327 334 330 325 329 313 297 286 257 209 206 222 196 223 242 213 263 246 240 248 255 264 264 270 287 291 287 281 268 265 294 302 250 257 259 254 253 241 233 234 233 230
13 13 10 8 9 10 9 7 5 2 0 358 357 356 352 350 347 346 346 345 343 339 337 340 341 345 348 348 353 357 354 5 10 348 338 343 346 331 311 302 303 304 310 312 316 316 316 332 337 336 338 321 318 314 293 273 273 278 234 246 264 241 273 268 263 261 269 279 272 267 271 277 284 277 252 243 231 252 264 276 280 278 272 254 240 235 229 225
12 13 12 9 9 9 7 7 5 3 1 359 358 356 354 350 346 345 344 344 345 342 342 342 343 354 358 356 360 8 19 19 347 347 341 345 348 343 329 310 303 297 301 307 312 317 323 342 358 0 346 328 338 324 313 325 326 291 276 289 301 311 289 288 294 289 296 302 296 284 273 278 286 286 269 247 238 258 271 278 283 286 283 268 254 242 229 222
10 12 13 10 8 7 5 6 5 3 1 1 359 358 355 350 346 344 343 345 347 347 347 344 350 3 6 8 13 25 32 10 346 345 335 337 340 341 337 319 305 293 295 303 315 330 339 354 10 3 349 333 338 327 317 323 318 269 275 316 318 322 311 300 301 298 302 301 294 289 283 281 269 277 281 252 252 267 272 274 277 283 284 273 261 251 239 228
7 10 11 9 7 5 4 5 4 3 2 2 0 357 353 349 347 345 344 347 351 353 351 350 0 9 16 21 24 32 23 360 347 345 335 330 329 333 334 324 312 297 298 307 322 340 346 358 14 9 6 337 324 314 323 326 316 249 269 316 320 320 314 308 304 299 301 299 296 290 272 261 253 264 276 259 262 269 271 275 276 280 285 278 264 254 246 235
4 8 9 7 4 4 5 5 4 3 4 3 360 357 352 349 349 349 351 355 357 355 352 359 9 14 25 26 26 36 10 355 350 348 339 328 327 333 331 322 321 312 305 308 318 332 341 353 2 3 344 302 304 300 326 336 314 346 321 314 313 309 309 307 301 297 299 301 300 289 265 267 263 264 271 265 267 268 268 273 272 269 274 279 271 255 247 240
2 3 6 5 2 3 3 4 3 2 4 3 0 358 352 352 352 353 358 358 356 354 357 7 13 19 31 25 28 35 356 355 356 350 343 336 340 346 338 323 326 323 308 306 316 323 332 343 336 339 323 281 292 300 310 285 278 326 322 312 304 299 301 298 291 289 293 297 287 268 263 273 266 251 252 262 266 262 262 270 272 266 265 273 274 258 245 240
1 1 4 2 360 1 1 2 2 2 4 3 2 359 354 355 356 358 1 354 355 3 6 12 19 27 34 28 30 20 353 360 360 355 351 349 354 354 346 336 332 331 315 303 308 320 322 327 327 329 316 289 315 307 291 282 307 321 320 313 306 303 298 284 275 278 284 290 276 258 262 269 258 240 238 251 259 261 264 268 271 272 270 271 274 266 247 239
1 1 2 1 359 359 359 1 1 3 4 4 5 360 357 359 1 1 356 357 11 18 14 17 31 34 36 36 28 8 358 3 0 358 357 355 359 356 345 339 333 329 319 300 297 311 313 315 327 323 304 309 320 304 293 317 321 314 314 312 307 316 303 279 261 258 247 245 270 274 279 266 238 233 245 255 261 262 262 262 264 266 269 270 272 271 257 245
1 1 2 1 358 358 358 359 1 4 5 7 6 360 0 5 6 360 357 20 35 28 21 21 42 41 39 42 19 9 6 7 4 1 359 358 360 358 348 336 332 322 314 302 292 299 305 309 315 309 306 309 300 290 300 317 322 310 300 274 300 328 304 287 284 251 228 226 238 183 276 264 237 238 243 251 257 258 256 255 257 258 260 263 264 265 263 255
1 2 3 1 359 358 357 358 0 4 5 7 5 359 6 14 9 3 11 50 43 31 27 22 45 44 40 42 13 11 13 13 13 9 5 2 359 359 357 340 330 317 305 302 290 286 290 301 305 305 303 291 290 305 311 321 330 313 296 270 292 309 274 308 337 190 201 237 202 162 260 261 253 262 254 255 255 249 249 251 253 253 253 256 257 258 259 258
0 1 3 2 0 358 357 357 358 3 6 7 5 1 12 26 15 12 33 66 43 35 29 24 45 49 42 34 5 7 15 16 17 15 8 3 359 356 356 354 343 324 306 302 296 282 280 286 288 291 290 287 304 319 321 325 335 327 291 292 317 247 271 318 322 180 183 266 192 173 248 272 268 260 261 267 261 251 252 256 257 256 252 252 253 252 254 257
358 1 4 3 0 359 358 357 357 1 5 7 7 7 22 37 22 19 30 39 36 36 31 27 27 67 57 22 357 3 12 15 14 13 9 4 1 356 355 0 354 342 325 311 302 281 272 270 266 269 281 297 321 345 325 303 310 355 258 269 291 283 297 324 315 300 33 334 239 214 246 277 277 287 300 302 302 296 287 286 279 272 266 258 255 253 251 252
357 0 4 4 2 359 359 358 356 358 4 10 11 13 33 50 34 27 24 21 27 38 34 31 21 103 62 7 359 358 359 6 10 8 8 5 2 358 353 355 352 346 345 338 331 315 276 263 259 258 279 13 84 74 317 271 269 302 268 256 272 284 297 303 304 335 11 24 315 292 272 271 282 320 323 317 317 318 304 296 290 284 280 272 264 261 257 254
358 357 2 6 3 359 0 359 355 356 3 11 13 15 42 63 43 34 26 20 26 35 33 27 25 64 342 353 353 349 350 357 6 6 4 3 3 2 355 351 350 344 349 359 1 357 333 303 337 338 12 73 85 75 254 259 264 292 293 295 300 307 298 292 287 319 354 359 318 307 286 283 295 312 312 309 308 307 297 293 293 289 286 280 275 269 266 263
355 354 360 7 4 1 2 360 357 356 0 13 15 20 65 48 39 40 36 37 41 45 21 7 22 74 293 336 343 345 349 354 4 7 2 360 1 1 359 355 356 357 360 9 356 357 358 345 15 350 325 293 234 222 243 268 285 282 295 305 296 302 290 279 277 295 345 340 307 300 289 289 298 299 304 301 298 296 292 292 292 291 287 282 277 272 271 269
352 351 354 5 8 3 2 2 359 355 1 10 9 20 49 18 14 23 22 40 48 41 34 0 9 25 332 339 348 349 350 0 8 7 2 359 357 357 1 359 3 15 16 3 330 346 12 355 316 271 265 230 248 246 258 283 287 283 293 293 284 289 288 281 278 279 310 315 288 289 294 292 292 293 294 292 292 291 290 291 291 291 289 284 278 273 272 270
350 347 348 2 10 6 6 4 359 358 1 1 5 36 49 28 29 349 352 23 41 28 31 14 4 1 353 350 352 350 347 355 4 8 4 357 358 359 359 359 7 16 356 334 313 334 13 333 288 318 285 244 265 269 289 302 305 297 279 279 280 276 280 283 278 273 276 267 269 288 296 290 290 296 292 287 290 281 280 286 287 288 289 288 283 278 275 271
347 342 345 358 8 10 9 6 3 359 356 356 15 45 51 35 36 5 349 340 13 23 24 12 10 3 0 359 354 351 345 339 353 6 4 356 2 3 349 358 17 348 334 339 344 355 8 296 284 337 321 283 276 273 290 286 282 285 277 280 278 282 290 279 262 279 305 268 280 314 308 290 286 288 282 273 268 267 270 271 274 280 284 286 286 283 282 278
344 340 345 354 7 13 9 11 5 352 352 4 23 38 40 29 22 10 5 306 332 18 16 7 9 1 2 3 353 348 346 340 342 358 2 356 359 356 343 355 0 334 342 359 2 353 342 286 296 318 320 313 290 282 299 287 284 258 260 279 272 290 311 276 272 325 319 287 280 306 301 289 284 277 272 261 253 258 264 264 265 269 271 278 284 284 284 282
344 337 342 354 8 12 8 14 6 352 358 11 21 28 24 18 14 5 5 330 292 6 10 5 7 4 1 359 353 346 340 349 345 352 360 356 353 352 346 349 343 343 349 342 339 321 287 277 297 314 326 336 295 293 300 266 280 249 242 258 261 279 285 278 312 327 309 289 278 297 294 284 282 271 266 261 253 253 260 265 266 266 268 274 280 281 282 283
341 335 338 352 6 11 7 11 8 3 2 8 14 17 11 5 6 1 4 69 302 346 3 7 7 5 358 355 356 348 320 351 359 355 358 357 352 347 336 346 351 343 340 332 326 303 275 284 318 334 330 336 300 298 312 256 273 265 245 262 263 277 283 283 307 316 309 302 287 321 304 282 295 294 278 292 295 275 280 285 276 278 279 280 283 285 286 287
344 339 336 344 357 8 10 9 9 6 358 2 5 0 357 354 355 352 5 70 0 335 354 358 1 1 357 356 357 356 327 349 1 4 3 1 356 345 325 344 356 331 331 325 323 279 276 317 344 341 329 342 333 309 333 346 298 275 220 354 327 332 313 297 312 306 276 290 319 27 339 289 302 300 271 289 305 292 298 301 283 287 291 290 291 294 296 296
352 341 333 337 348 2 12 10 4 4 358 353 351 348 345 344 345 337 15 52 2 330 340 346 352 352 353 357 3 15 3 322 347 7 10 7 359 351 304 336 344 321 330 329 341 339 314 333 349 12 6 353 335 310 344 45 325 281 59 20 351 337 316 299 309 293 266 306 323 326 274 281 289 281 262 270 288 299 301 294 289 291 294 297 300 301 302 304
357 341 333 336 342 355 4 4 359 360 356 342 338 341 335 336 339 338 81 76 336 330 336 339 342 344 349 358 14 25 359 325 344 357 8 19 6 353 260 322 323 295 326 33 341 326 313 334 352 19 11 337 304 285 305 4 282 274 326 339 318 290 267 246 255 270 286 311 302 243 213 262 279 283 337 327 309 310 293 281 280 280 286 294 300 302 307 311
353 339 338 343 343 346 351 355 353 351 347 339 335 334 330 332 330 50 75 90 306 339 342 344 345 341 347 356 14 12 5 13 357 345 4 27 17 7 270 291 321 308 325 149 260 305 295 303 317 20 11 290 278 282 283 221 234 291 322 311 293 265 243 216 206 232 269 279 272 245 187 238 282 284 322 359 342 289 273 269 268 270 283 292 300 311 325 332
348 341 349 3 1 345 344 347 346 346 343 337 329 328 329 331 353 70 42 336 291 347 334 349 349 339 347 354 4 360 1 4 350 353 4 16 19 23 8 290 319 342 321 253 243 282 299 305 292 132 270 270 282 295 290 234 235 311 330 309 294 274 242 208 206 196 234 264 266 247 193 206 274 293 219 235 235 257 266 281 287 291 303 312 323 333 341 343
349 350 2 17 18 4 4 359 350 347 339 330 325 329 325 330 55 89 58 290 303 341 341 354 343 342 354 6 341 346 347 338 352 4 3 359 14 22 22 347 328 354 358 341 339 323 328 344 14 306 330 343 318 302 322 304 270 343 308 311 314 295 11 20 349 98 201 251 248 244 204 205 245 283 258 253 268 272 253 273 295 311 325 333 340 342 345 349
355 2 12 22 26 25 25 17 2 348 337 331 328 331 333 39 24 96 263 320 321 328 352 348 332 339 346 359 322 331 331 334 355 8 357 348 9 12 24 30 348 1 9 354 343 339 341 325 326 321 19 19 4 327 344 349 38 18 304 330 345 325 28 10 322 106 222 257 247 245 212 205 239 260 264 268 278 282 273 296 325 338 345 348 355 0 2 7
4 12 24 26 31 30 21 13 360 348 339 334 327 333 69 77 17 214 268 330 258 276 315 303 323 326 330 2 348 324 329 318 349 2 352 1 24 3 9 23 24 43 0 342 341 347 344 306 346 3 2 10 20 15 353 336 342 355 329 333 335 332 0 292 272 14 275 279 295 300 274 270 259 247 255 272 291 328 351 6 16 15 6 359 1 6 6 7
12 19 32 30 29 21 11 2 351 348 342 336 333 11 66 64 227 204 264 279 251 293 320 306 318 327 357 20 326 329 358 310 342 4 358 9 25 1 354 5 24 40 337 351 2 5 351 303 346 25 334 344 7 358 321 279 299 313 277 287 294 329 345 294 322 359 281 279 312 340 2 229 235 231 25 6 6 31 22 15 20 15 9 5 2 3 3 3
17 37 32 26 15 3 357 350 345 348 342 339 5 69 79 135 240 214 243 262 276 309 307 308 327 356 348 330 317 358 35 297 340 2 357 10 9 339 352 350 2 15 13 10 351 318 315 268 286 331 309 310 350 338 316 263 313 299 288 319 305 338 357 281 279 268 267 294 301 282 240 214 237 276 11 40 26 23 12 5 11 8 5 5 2 360 358 357
4 47 26 4 351 346 344 342 342 345 343 355 47 67 126 196 201 175 194 270 319 323 315 324 11 53 339 323 327 346 2 253 339 351 337 353 353 328 346 330 0 23 30 12 334 310 318 272 295 327 317 224 346 332 320 51 342 323 20 355 300 301 177 232 273 261 268 298 275 145 289 307 314 303 351 23 9 4 358 356 0 359 1 2 358 354 351 349
280 222 280 316 339 346 341 340 339 341 352 38 77 103 220 203 176 189 233 327 294 333 8 354 342 347 334 328 303 324 345 340 351 11 346 343 347 317 332 340 24 34 37 14 317 332 322 288 296 323 302 316 336 333 341 66 9 3 11 315 306 296 154 25 317 306 351 303 294 12 301 309 337 310 344 3 356 353 351 348 349 351 357 356 348 345 343 343
234 214 297 321 335 341 344 348 341 345 47 58 73 109 202 231 219 233 313 334 283 35 65 144 272 330 345 320 289 311 343 347 355 12 338 336 329 291 337 353 6 16 16 17 340 281 318 302 298 234 283 318 338 353 20 20 20 42 288 305 339 61 0 355 346 330 351 326 311 333 318 310 283 273 339 348 342 343 342 342 343 343 347 344 337 336 336 337
230 210 329 340 335 339 351 4 358 52 73 64 83 125 262 262 278 302 334 329 254 102 69 211 209 19 0 314 291 311 338 338 339 346 327 12 341 323 51 356 349 2 360 1 50 273 336 315 286 23 11 335 341 17 2 340 357 8 338 347 42 66 330 338 348 349 352 329 317 323 325 307 244 249 332 330 332 339 335 336 335 327 327 329 328 329 330 334
123 166 345 343 342 344 356 27 42 62 70 83 165 203 267 284 313 330 340 334 301 172 273 228 182 327 319 294 286 310 336 319 314 324 245 231 322 316 356 37 6 356 349 348 13 306 346 251 267 318 13 359 335 357 335 307 319 337 5 28 14 341 334 317 342 65 62 341 321 316 307 280 257 271 308 310 319 320 311 320 319 317 320 323 325 327 329 332
68 93 0 356 2 358 6 42 47 52 75 113 161 200 285 311 313 321 332 340 328 270 283 266 239 232 247 295 309 323 326 310 303 270 242 263 341 303 15 33 21 355 348 351 2 14 15 236 282 302 333 344 297 290 275 258 252 232 132 44 9 340 22 356 334 64 79 235 237 274 290 280 272 256 276 292 299 289 301 312 314 316 318 319 323 326 328 329
75 80 9 11 17 8 17 49 37 38 97 94 329 270 296 313 310 317 336 347 357 338 329 313 288 222 214 245 313 329 312 301 297 242 225 262 226 217 9 21 15 6 7 340 306 340 317 253 271 285 294 284 280 290 341 155 196 173 128 65 50 5 60 56 311 313 326 236 221 231 252 272 274 249 246 297 300 297 304 311 316 314 314 316 320 322 325 325
71 71 17 9 7 9 31 56 23 19 53 319 308 281 287 303 319 346 336 341 354 347 343 338 298 233 237 264 316 308 300 294 278 248 259 277 232 276 348 5 8 6 8 328 315 354 331 264 264 285 279 255 272 306 31 45 69 71 341 8 82 61 111 142 228 290 299 276 266 255 237 266 278 258 82 309 303 300 305 315 318 312 313 317 318 320 322 322
68 62 29 14 2 8 48 100 46 20 328 319 337 329 307 278 263 321 322 309 318 332 116 308 256 217 284 339 329 306 324 323 287 312 336 343 307 324 334 348 356 357 346 309 328 350 337 293 297 306 302 297 317 348 359 346 21 38 291 281 158 206 57 85 54 331 290 244 222 244 253 266 284 313 321 303 300 302 310 317 318 315 317 319 319 319 320 320
64 65 35 23 18 36 81 111 121 118 318 344 356 338 337 335 277 299 297 286 281 218 195 281 294 262 9 342 317 319 334 310 235 346 357 343 303 314 328 340 341 331 306 300 298 296 289 263 275 304 310 308 312 314 308 316 318 294 277 230 217 244 270 301 315 298 264 242 231 243 264 279 290 300 303 301 304 314 316 315 318 320 320 319 319 319 318 319
70 72 22 23 36 63 86 93 88 101 177 23 2 326 356 334 292 307 305 289 339 339 268 282 308 8 31 6 345 312 312 292 220 322 320 300 289 307 330 333 326 311 304 307 307 301 277 241 272 280 282 283 286 286 291 301 298 291 289 280 270 269 254 243 254 250 250 270 264 249 256 277 287 295 302 306 311 317 314 313 317 322 321 320 318 317 317 319
76 69 28 34 42 67 82 71 61 84 145 129 316 270 167 273 302 327 306 238 353 339 305 324 38 59 28 13 4 291 292 315 310 288 281 273 251 293 318 323 313 303 316 332 347 350 292 272 290 278 273 276 281 287 293 295 289 287 292 291 287 283 269 256 251 251 257 280 270 263 266 276 283 291 300 302 304 308 309 310 314 316 318 317 316 316 318 320
81 114 107 91 33 94 78 41 44 77 134 161 186 188 132 302 315 329 280 299 338 341 41 68 47 80 75 45 40 292 307 324 307 279 271 289 297 310 320 318 298 309 338 356 13 31 341 266 271 266 271 275 278 287 293 293 289 288 289 289 289 286 273 259 256 256 252 248 261 276 283 279 282 289 292 292 296 302 304 305 307 311 313 315 314 315 318 320
102 124 118 96 179 184 163 319 8 81 126 217 205 165 164 222 244 242 257 341 337 331 38 338 239 146 145 137 133 263 290 311 300 289 284 299 307 311 316 308 297 317 355 12 11 20 313 260 263 270 279 280 281 286 289 289 289 286 282 280 281 279 270 262 261 259 250 248 257 269 273 273 277 282 283 287 292 297 302 304 308 314 316 317 317 316 318 321
111 126 143 122 140 161 159 185 166 118 31 292 267 253 198 192 233 253 195 182 275 312 20 229 252 192 195 192 167 228 250 258 268 270 269 286 305 311 297 270 276 305 331 332 325 327 261 258 327 323 296 286 283 280 280 283 283 281 282 281 275 273 271 267 265 262 253 252 257 259 265 271 274 274 277 285 292 299 307 313 319 322 321 320 320 321 324 326
138 131 132 125 129 152 154 164 151 124 13 286 205 230 215 208 217 185 218 230 231 240 240 237 277 335 264 254 241 255 268 265 255 260 266 268 273 276 267 257 268 295 309 288 280 324 244 280 320 317 290 284 284 284 286 289 285 280 278 275 267 264 266 263 259 252 243 251 260 262 265 269 272 277 284 291 300 312 319 322 326 325 321 322 323 327 332 335
260 270 218 164 92 182 169 149 114 107 270 221 201 211 225 245 234 137 328 264 229 234 253 245 232 31 303 282 279 284 289 284 274 278 281 276 273 271 266 264 266 268 268 266 267 225 227 272 295 287 283 286 286 291 296 300 297 286 263 246 248 251 261 267 263 254 240 243 259 267 261 265 277 290 303 311 321 329 324 322 324 321 318 323 333 338 339 338